STARLINK-32497 (62161 NORAD) Tracking and Keplerian Element Data

This shows tracking and keplerian element data for the satellite.

Feedback or suggestion? Click here.




ElementValue
Catalog62161
NameSTARLINK-32497
Epoch Orbit1142
Epoch Day35.02795785
Epoch Year2025
RAAN256.9911
Inclination43.002
Eccentricity0.0001306
Argument of Perigee267.4035
Mean Anonmoly92.6669
Mean Motion15.32093532
Decay Rate8.75E-06
L11 62161U 24224Y 25035.02795785 .00000875 00000+0 36338-4 0 9994
L22 62161 43.0020 256.9911 0001306 267.4035 92.6669 15.32093532 11426



Live tracking and technical data element details for STARLINK-32497 (NORAD 62161). STARLINK-32497 can be tracked NOW for your location showing map with azimuth and elevation plus other details from your city location.







IsCatalogInMostPopularTable: catalog: 62161, numindb: 20
Update: records affected: 1



GetName: 62161 STARLINK-32497

Hit Count: updated at: Sun, 18 May 2025 22:18:43 GMT